STARLINK-34278 (64391 NORAD) Tracking and Keplerian Element Data

This shows tracking and keplerian element data for the satellite.

Feedback or suggestion? Click here.




ElementValue
Catalog64391
NameSTARLINK-34278
Epoch Orbit3030
Epoch Day354.13487237
Epoch Year2025
RAAN268.765
Inclination42.9997
Eccentricity0.0004061
Argument of Perigee252.5928
Mean Anonmoly107.4479
Mean Motion15.27621739
Decay Rate0.00021792
L11 64391U 25127X 25354.13487237 .00021792 00000+0 79795-3 0 9994
L22 64391 42.9997 268.7650 0004061 252.5928 107.4479 15.27621739 30304



Live tracking and technical data element details for STARLINK-34278 (NORAD 64391). STARLINK-34278 can be tracked NOW for your location showing map with azimuth and elevation plus other details from your city location.







IsCatalogInMostPopularTable: catalog: 64391, numindb: 6
Update: records affected: 1



GetName: 64391 STARLINK-34278

Hit Count: updated at: Sat, 11 Apr 2026 21:30:36 GMT